RH
19 60 93 98 100 100 100 100 100 58 19 31 23 24 29 36 38 34 33 38 42 100 100 100 100 100 100 97 100 100 100 100 100 98 100 100 100 100 100 100 100 100 94 98 59 49 78 73 20 30 24 39 44 30
56 95 99 100 100 100 100 100 100 99 14 26 24 23 27 29 32 28 22 47 100 100 100 100 100 88 99 99 92 80 91 100 100 100 100 100 100 100 100 100 100 100 100 100 99 89 94 88 92 94 60 83 74 68
97 100 97 80 73 92 100 100 100 100 94 20 24 25 26 31 26 16 50 100 100 100 100 99 100 100 90 94 99 99 99 100 99 100 100 100 100 100 100 100 99 98 88 57 59 86 100 74 61 82 100 100 88 65
97 76 70 86 98 97 96 99 98 100 100 79 21 16 22 17 13 33 98 100 100 100 100 100 100 98 97 100 99 100 99 97 100 100 99 100 100 100 100 100 85 89 77 67 63 81 100 88 88 100 100 100 100 100
65 82 91 94 95 99 100 100 87 100 100 100 96 40 18 21 45 97 100 100 100 100 100 100 100 100 100 99 96 100 100 98 100 98 88 100 100 100 100 97 92 83 84 70 77 59 71 72 100 100 100 100 98 100
93 92 92 95 96 100 100 100 100 88 100 100 100 93 77 95 100 100 98 99 100 100 99 100 100 100 100 100 100 100 100 100 100 85 86 76 87 80 80 87 94 81 76 69 72 49 39 43 37 58 72 92 98 92
97 91 91 90 90 90 95 99 100 100 92 100 100 100 100 100 100 91 87 100 100 100 98 98 100 100 99 100 100 100 100 100 99 92 82 80 80 65 45 59 99 90 74 71 69 46 46 35 29 29 28 48 51 82
99 100 92 84 84 79 69 66 85 100 100 100 100 100 100 100 100 100 100 100 100 100 100 98 100 100 99 99 95 90 88 88 80 78 74 76 76 58 33 47 78 87 79 68 69 48 59 44 28 25 24 28 30 78
93 83 80 73 70 67 65 66 74 96 100 100 100 100 100 97 99 100 100 100 100 100 90 87 92 94 82 79 72 60 53 50 52 49 55 62 62 46 44 53 80 94 68 64 62 52 56 48 37 25 24 25 25 36
68 56 39 40 45 52 52 62 85 92 100 100 100 99 96 100 100 100 100 100 100 97 84 87 87 79 75 68 61 51 40 34 29 27 26 25 30 45 60 63 73 87 58 60 57 56 53 48 42 33 21 21 22 22
78 67 48 66 79 64 52 48 84 100 100 100 100 98 92 100 100 100 100 99 92 80 78 90 86 88 86 83 83 70 62 53 42 38 29 24 25 21 24 28 47 43 57 65 50 57 54 48 46 40 23 22 21 22
74 70 60 71 78 67 55 54 55 72 100 93 82 97 100 100 98 94 96 92 76 72 72 73 77 76 74 87 100 94 82 78 59 70 50 34 27 27 31 24 16 35 48 58 51 50 50 48 41 42 30 25 23 24
94 65 81 70 89 96 98 86 71 64 98 100 100 100 100 94 86 59 51 62 64 79 91 78 68 63 68 78 82 82 79 81 92 87 55 33 59 54 39 33 26 24 43 65 69 58 54 52 47 44 37 30 30 39
99 74 88 98 91 100 100 100 87 82 100 100 100 96 95 70 44 38 59 79 83 69 61 52 53 53 54 65 85 72 82 97 92 89 76 63 69 93 72 65 43 28 37 78 82 75 64 60 56 52 45 37 36 41
86 86 99 100 100 98 99 96 97 100 100 96 94 94 69 46 52 69 68 61 67 62 52 46 59 68 86 78 86 84 74 71 89 100 78 83 100 100 100 100 96 83 85 84 95 86 75 66 67 63 48 43 34 35
88 87 88 99 100 100 100 100 100 100 100 100 89 89 77 69 76 67 58 59 61 61 62 68 83 86 94 99 84 81 60 74 91 100 94 100 100 100 100 100 84 78 97 92 80 75 74 77 69 60 53 44 31 31
100 100 97 84 84 86 100 100 100 100 96 95 95 96 98 93 74 61 60 62 76 85 95 83 87 81 93 94 67 54 51 69 92 95 97 97 100 100 96 97 98 94 92 84 82 91 77 68 61 53 41 27 33 32
100 100 98 100 100 100 97 81 76 76 87 96 89 82 73 62 54 55 60 81 75 69 68 68 72 76 76 66 64 80 75 78 81 81 95 99 100 100 89 88 87 85 82 66 64 62 56 52 50 39 36 44 46 41
98 100 100 98 100 100 100 100 99 66 59 59 66 68 68 70 64 56 54 55 55 57 68 71 61 54 49 46 62 81 90 92 92 93 98 100 100 100 100 97 93 91 78 64 42 38 42 42 42 51 97 66 63 73
100 100 100 100 100 100 100 100 95 79 56 46 44 41 37 37 35 32 31 33 36 42 48 55 78 94 95 97 99 100 100 100 100 100 100 100 100 100 100 95 79 75 65 65 57 46 41 44 66 80 91 93 67 85
100 100 100 97 85 81 87 96 100 100 100 90 57 40 32 34 48 59 66 74 90 100 100 100 100 100 100 100 100 100 100 100 100 100 99 95 95 100 100 94 89 73 76 68 54 65 82 93 78 83 100 100 100 100
45 42 55 58 56 60 72 88 89 87 79 75 86 83 94 100 100 100 100 100 100 100 100 100 100 100 100 100 100 98 100 100 100 96 100 100 100 100 90 86 90 100 100 100 100 97 100 100 100 100 100 100 100 100
47 35 32 33 34 37 54 85 96 93 96 79 90 100 100 100 100 100 100 100 100 100 100 100 100 100 100 100 100 100 76 41 43 42 61 65 73 73 73 75 99 100 100 100 100 100 100 100 100 100 100 100 100 100
37 29 26 30 31 44 70 100 100 100 100 100 100 98 96 100 100 100 100 100 100 100 100 100 100 100 100 100 100 99 68 60 66 54 45 49 62 62 59 80 100 100 100 100 100 100 100 100 100 100 100 100 100 100
60 37 38 52 98 100 99 97 100 100 100 100 100 100 100 100 100 100 100 100 100 100 100 100 100 100 99 99 98 95 98 94 90 100 81 74 77 78 78 95 100 100 100 100 100 100 100 100 100 100 100 100 100 100
100 100 100 100 100 100 100 100 100 100 100 99 100 99 99 98 97 97 99 100 100 100 100 100 100 100 99 98 96 94 93 91 92 95 96 99 97 99 100 100 100 100 100 100 100 100 100 100 100 100 100 100 100 100
95 96 100 100 100 100 100 100 100 97 96 92 92 82 74 64 61 53 46 44 41 45 51 59 70 77 86 92 94 95 95 94 95 96 97 97 98 100 100 100 100 100 100 100 100 100 100 100 100 100 100 100 100 100
58 53 51 50 35 37 36 35 34 35 34 35 34 34 35 35 33 32 30 28 25 24 22 19 18 19 19 18 16 17 19 34 56 80 93 97 100 100 100 100 100 100 100 100 100 100 100 100 100 100 100 100 100 100
53 52 52 49 48 49 50 50 50 49 48 47 46 44 42 41 40 39 37 35 34 32 30 27 24 21 19 18 18 17 17 16 15 14 14 14 19 37 55 81 98 100 100 100 100 100 100 100 100 100 100 100 100 100
57 64 67 68 65 60 57 54 52 50 47 45 43 41 40 38 37 35 33 32 30 30 29 28 28 28 27 27 26 24 23 21 19 17 17 17 21 28 33 44 62 80 91 100 100 100 100 100 100 100 100 100 100 100
72 71 68 64 61 58 55 51 49 45 41 39 35 32 28 23 20 16 13 11 10 10 10 11 11 11 12 12 12 12 12 13 13 13 13 15 25 39 61 81 95 100 100 100 100 100 100 100 100 100 100 100 94 86
82 80 67 59 54 52 50 46 43 37 29 22 15 10 9 9 10 10 10 9 9 8 8 8 8 9 10 12 13 14 15 16 16 16 17 17 16 17 17 19 20 23 25 24 26 26 27 30 31 32 35 39 43 49
63 58 57 56 51 41 29 20 14 11 13 16 18 19 19 17 15 12 12 10 10 10 10 11 13 16 20 23 26 27 28 28 28 28 28 27 27 27 26 26 25 25 24 24 24 24 26 28 34 43 51 63 74 85
Wind_Speed
31 30 28 25 22 20 17 16 16 18 20 20 21 23 25 25 22 20 21 21 20 27 26 26 24 28 22 21 21 17 15 16 16 19 14 11 8 9 17 19 10 16 18 17 19 17 13 13 17 20 28 29 30 35
29 27 25 24 26 24 19 14 14 15 20 21 23 24 24 24 22 22 21 18 22 27 27 28 28 27 25 25 30 27 21 19 14 11 7 6 5 10 18 23 19 16 16 13 12 11 13 17 12 16 26 25 29 31
26 23 22 21 19 17 17 18 16 14 15 22 25 24 24 23 22 17 19 21 21 28 25 30 30 29 28 25 29 26 23 23 20 17 15 14 10 11 17 19 19 21 22 19 10 10 13 15 23 21 13 19 21 25
21 19 18 16 15 14 14 15 16 17 15 15 21 27 27 24 21 21 23 19 25 28 31 25 31 27 29 23 21 21 23 21 18 18 15 11 8 10 15 21 20 17 14 13 12 9 4 19 18 14 15 15 21 18
17 16 15 16 16 15 14 14 15 19 18 17 17 20 23 25 25 23 22 23 25 24 30 25 26 26 23 21 20 19 19 17 17 18 15 11 9 9 10 14 16 18 13 12 12 14 8 5 8 8 12 13 19 14
15 16 16 15 14 14 14 14 15 18 22 21 19 21 24 25 25 23 25 28 26 23 30 23 14 13 17 19 20 20 20 20 22 22 19 16 12 13 13 13 19 18 19 17 15 11 7 6 7 8 11 12 14 10
15 13 15 18 19 19 18 16 17 18 21 26 25 24 25 25 26 26 26 20 21 23 22 23 17 17 16 15 15 16 17 19 24 25 23 21 20 20 16 17 16 19 20 18 17 15 11 10 7 10 9 15 18 15
13 16 18 19 19 20 22 22 20 20 21 24 26 28 27 27 28 27 22 21 23 24 24 23 21 19 19 18 19 20 21 24 26 26 24 22 22 25 22 18 14 21 24 23 21 19 14 15 10 11 12 12 19 23
11 11 13 15 18 20 22 25 27 23 24 26 25 23 25 30 30 24 23 21 21 23 27 25 21 19 24 23 24 26 25 28 28 30 29 29 29 31 27 22 15 25 30 27 24 22 19 19 17 14 12 12 14 22
8 4 4 9 12 16 24 27 31 32 31 33 36 35 31 25 24 25 25 26 27 29 29 18 17 17 18 20 19 19 21 20 23 23 26 31 32 33 32 30 21 28 29 28 28 27 27 24 23 21 20 15 15 17
2 2 6 5 6 13 19 27 32 37 38 39 41 39 31 26 25 25 25 25 24 21 15 16 17 17 16 15 15 18 19 19 19 18 23 24 19 28 29 33 34 35 30 33 31 29 29 27 25 25 24 20 21 20
7 7 11 11 2 13 20 29 32 32 38 38 35 34 32 29 29 24 24 23 20 18 16 17 17 19 17 14 12 16 16 18 17 16 22 19 19 20 24 26 30 38 39 40 39 35 31 29 27 27 27 24 25 27
12 14 18 18 19 22 26 33 35 34 36 41 37 34 34 32 26 22 19 18 17 13 13 14 15 15 16 17 18 18 20 21 18 20 18 17 14 20 24 29 32 36 45 45 44 41 36 33 31 29 28 28 27 27
16 21 24 26 24 26 29 35 35 39 43 41 40 35 32 28 22 18 16 13 15 15 14 14 16 18 18 17 19 18 20 21 25 28 24 17 18 21 22 23 26 30 39 44 42 41 37 34 33 31 29 28 27 27
21 25 25 25 28 30 29 27 33 39 37 37 36 32 30 27 23 15 16 16 15 16 16 15 17 16 19 19 18 18 19 18 15 12 17 24 21 15 16 18 15 17 23 33 35 35 35 33 32 30 29 29 28 23
25 22 23 26 29 25 24 25 29 29 31 34 34 31 28 24 18 18 16 13 14 15 17 17 14 14 13 21 19 17 16 13 10 17 17 15 15 13 13 15 17 17 21 25 26 28 28 30 31 32 32 31 30 29
22 23 24 27 27 25 24 22 22 20 22 23 22 18 17 17 18 16 14 12 13 15 16 15 13 15 15 13 13 16 19 18 17 16 17 17 18 16 18 19 20 21 23 25 24 27 26 27 31 31 30 31 34 35
6 4 11 14 18 17 14 14 14 16 18 21 19 18 17 16 15 15 16 16 13 13 14 17 16 17 18 18 17 19 20 22 22 22 22 21 19 18 19 19 22 21 22 22 24 27 27 27 27 26 26 25 28 32
10 9 3 5 4 4 5 14 13 13 17 21 19 17 17 16 16 17 16 15 16 17 18 18 17 15 17 20 21 22 23 25 26 27 28 27 23 21 17 18 19 19 16 18 20 24 28 27 28 26 25 18 22 20
10 9 10 9 9 9 10 15 16 17 17 18 19 18 17 17 16 16 17 17 16 18 20 21 21 20 21 23 24 25 27 28 29 30 29 29 27 27 23 20 21 23 24 19 20 22 23 24 22 24 22 20 23 25
11 12 11 10 10 11 13 14 14 15 16 16 17 19 19 20 18 17 18 19 21 21 22 21 21 22 22 24 26 27 29 32 35 37 38 38 35 31 26 24 21 20 24 23 22 21 17 17 22 24 23 19 20 23
12 11 10 10 11 11 9 8 7 8 10 12 12 10 9 9 8 7 7 10 12 13 15 16 17 19 21 25 29 29 25 21 17 15 16 19 24 26 26 23 21 19 17 18 17 19 17 17 18 19 19 18 16 16
6 6 7 8 7 6 6 5 8 10 10 12 13 9 5 4 6 9 13 15 17 17 16 15 13 11 11 11 8 3 2 2 4 4 4 8 13 18 20 15 11 11 16 15 16 14 14 15 15 15 16 20 21 20
3 3 6 6 5 5 5 9 11 10 9 3 1 3 4 6 4 3 2 2 5 6 7 6 5 5 6 6 4 4 3 3 2 2 4 5 9 12 12 10 10 8 10 13 16 16 18 19 21 23 23 24 25 26
4 7 10 9 8 9 11 9 6 5 2 1 3 3 4 4 3 4 5 5 4 4 5 5 3 1 2 5 5 2 3 5 5 4 6 8 9 11 13 14 14 16 19 20 20 21 22 23 26 27 28 29 30 30
11 12 10 8 9 9 9 8 6 4 4 4 4 5 3 3 3 2 2 2 2 1 1 2 4 5 5 5 5 3 2 2 4 8 13 15 16 16 16 18 21 23 25 25 25 26 27 28 28 28 28 29 30 31
12 11 9 8 7 7 7 6 5 3 2 1 2 3 3 5 6 6 6 7 8 8 9 9 10 10 11 11 11 11 11 11 11 11 10 11 12 13 15 17 18 20 21 22 23 24 26 27 28 29 31 33 34 36
8 5 4 4 3 3 3 3 4 5 6 7 9 10 11 12 13 14 15 15 15 16 17 18 18 18 17 17 17 17 16 17 17 18 20 20 20 21 21 22 22 23 24 25 27 29 30 32 34 35 37 39 40 42
2 3 4 5 7 8 9 10 11 11 12 13 13 15 16 17 18 19 20 21 22 22 23 24 25 25 26 26 26 26 26 26 25 25 25 26 27 28 29 30 31 32 33 34 35 36 37 39 40 41 42 43 44 45
11 13 15 16 17 16 16 16 16 17 18 19 20 22 23 24 25 27 28 29 30 30 31 32 32 33 34 34 34 34 34 34 34 35 35 35 36 36 37 38 39 40 40 41 42 43 43 44 45 45 45 46 46 47
18 19 20 19 17 17 18 20 21 23 24 26 29 31 34 35 35 35 34 34 34 34 35 36 37 38 38 38 37 37 37 37 37 37 38 39 39 39 40 41 42 42 43 43 43 44 44 45 45 46 46 47 47 47
19 15 14 14 16 20 22 26 29 33 35 34 32 29 25 23 23 25 27 28 29 29 30 30 30 29 29 29 29 29 29 30 30 30 30 31 31 32 33 34 35 36 37 38 38 39 40 40 41 41 41 41 41 41
12 15 19 22 26 30 30 29 26 22 20 20 22 25 28 28 29 29 30 30 30 30 29 28 27 27 27 26 26 26 26 27 27 28 28 29 30 31 32 33 34 35 36 37 37 38 38 38 38 37 37 36 36 35
Wind_Direction
277 279 282 280 277 282 284 275 267 250 231 226 214 210 212 216 216 216 220 217 193 184 187 183 182 176 184 185 175 178 193 214 223 226 240 226 226 220 191 172 213 204 204 215 206 228 239 261 242 226 229 224 224 231
276 277 277 277 280 274 262 269 263 250 232 225 220 212 214 218 218 217 225 200 191 179 177 180 179 182 182 180 186 190 187 185 194 224 231 228 233 201 194 186 183 181 206 200 228 234 240 251 212 221 212 217 221 223
272 272 277 280 279 276 261 247 248 246 236 224 219 217 217 220 225 225 194 193 180 169 177 166 170 183 188 185 196 209 202 204 204 189 196 215 211 196 197 196 199 198 199 204 206 215 229 240 208 174 213 211 230 229
269 268 266 266 265 263 257 253 236 230 224 218 216 217 218 219 214 185 184 185 166 166 173 171 184 190 192 203 202 196 199 204 204 209 219 218 196 187 193 205 206 204 201 196 209 233 207 204 196 198 181 192 199 214
256 255 258 257 252 250 246 240 234 219 213 208 201 196 192 185 180 179 183 182 177 182 175 181 189 200 200 197 200 199 204 209 212 223 234 236 237 213 196 201 210 217 217 203 206 222 222 237 221 226 209 196 198 198
256 259 259 255 243 240 237 232 225 217 203 200 191 183 179 180 182 187 186 180 178 187 194 206 198 200 199 198 204 213 217 220 230 238 242 243 246 242 208 190 216 213 219 208 217 221 201 223 230 221 242 246 219 226
251 250 261 253 247 243 242 233 221 211 205 195 193 192 190 189 193 194 187 179 194 203 208 214 222 219 221 223 219 216 223 231 239 246 247 251 254 257 228 194 214 228 230 227 220 227 220 241 257 272 289 244 238 225
262 265 263 259 253 247 238 227 216 207 198 197 195 192 194 195 199 202 201 205 207 213 221 226 232 232 237 238 241 242 241 244 250 255 254 249 248 253 238 236 222 231 232 234 231 229 230 243 253 261 283 288 241 222
267 269 271 264 254 243 235 225 212 201 189 186 179 180 182 198 204 201 202 201 203 211 220 224 229 234 242 242 246 251 251 250 252 253 254 252 248 249 251 249 238 228 231 231 229 231 232 241 248 259 275 273 273 241
293 252 279 273 254 235 224 217 207 196 185 177 179 185 193 184 171 179 189 196 203 216 226 220 206 208 218 224 231 238 248 252 254 255 250 251 248 252 253 250 232 232 232 228 228 227 231 238 242 252 257 276 277 272
16 314 309 323 265 239 212 198 196 192 185 180 182 187 181 176 173 181 181 185 195 206 203 200 212 217 226 233 231 237 242 248 253 246 254 256 251 253 255 248 233 234 233 232 231 229 229 232 235 244 246 263 277 274
40 7 26 6 229 214 194 191 183 183 181 181 184 184 177 173 183 186 188 195 199 205 200 207 214 221 223 222 227 232 232 237 241 242 243 250 257 252 255 251 241 229 227 229 232 231 231 230 236 239 245 258 271 271
63 65 41 57 59 83 146 160 167 168 173 174 177 177 179 182 186 195 195 198 194 191 195 210 220 224 220 223 231 233 230 226 226 225 237 242 253 263 263 260 250 232 221 224 228 229 230 233 238 241 242 252 262 267
82 74 60 67 88 96 120 140 149 160 170 170 169 169 173 181 185 182 180 174 174 189 201 217 227 227 230 230 228 238 239 239 243 241 238 243 258 270 264 262 262 252 232 224 223 226 230 234 237 240 243 250 258 263
92 87 78 73 87 97 103 117 143 155 165 169 170 178 184 185 189 176 173 183 189 201 208 212 223 233 227 221 225 247 259 240 255 254 235 247 270 273 247 251 234 226 226 231 233 233 231 234 237 240 245 250 249 256
102 98 97 91 92 104 113 128 138 151 167 175 182 190 193 190 184 186 190 208 212 205 207 219 226 219 225 234 242 232 228 249 273 260 264 271 265 264 253 231 222 231 231 223 222 225 227 233 236 240 242 247 244 249
103 100 96 101 107 111 117 129 146 150 158 169 176 182 188 191 196 201 215 209 200 195 199 205 214 220 236 231 235 249 250 260 269 264 264 268 273 265 264 254 247 241 234 234 233 219 229 235 237 239 246 250 244 246
125 112 78 79 90 118 122 128 135 152 158 163 167 172 176 189 196 195 193 188 197 209 218 223 232 240 246 245 251 255 257 260 261 265 266 274 263 260 265 262 254 252 249 246 235 233 239 243 240 244 254 249 251 242
138 129 116 82 151 146 125 160 173 164 161 163 166 174 176 178 181 185 197 213 227 230 229 233 244 246 245 248 257 258 257 259 262 264 266 265 262 248 256 255 247 241 241 248 247 246 244 242 237 240 234 242 228 219
135 148 152 145 142 140 139 149 161 169 176 183 183 183 188 197 210 225 233 236 234 233 238 247 259 259 255 257 261 262 263 263 263 261 259 255 248 243 235 244 248 242 242 251 253 252 258 239 239 234 243 236 229 245
128 128 125 126 124 126 129 135 142 155 167 178 190 205 216 226 230 232 236 241 247 252 255 257 259 262 263 266 269 272 275 276 274 270 267 261 252 245 226 232 247 244 243 236 239 256 223 247 248 246 242 245 240 237
105 108 117 118 117 115 108 110 133 153 175 182 182 185 191 185 185 204 226 242 248 252 255 257 260 263 269 274 276 275 273 274 272 275 272 255 238 227 215 230 238 244 228 223 217 219 237 242 233 241 248 251 245 234
99 100 113 118 117 105 91 80 117 117 122 140 149 160 177 219 255 263 270 270 264 260 256 257 261 266 276 278 276 261 166 104 56 65 92 129 158 183 204 210 237 225 225 228 214 232 245 245 255 263 257 257 261 263
178 169 150 140 126 130 141 131 129 131 136 120 226 241 252 259 259 279 311 139 135 146 147 138 114 80 54 58 95 127 121 120 75 112 113 146 172 184 201 219 214 216 228 236 243 249 255 262 264 268 270 267 263 262
196 155 147 134 122 120 128 138 145 154 185 85 108 103 136 116 111 76 64 79 115 139 158 170 175 166 49 63 63 70 239 240 245 229 219 217 220 224 223 222 226 234 243 248 250 252 255 257 261 264 265 265 266 268
140 137 144 150 155 158 147 150 154 156 142 125 103 110 107 84 64 45 30 23 10 349 275 272 271 274 273 269 261 253 215 199 209 225 228 229 232 235 240 246 249 249 252 254 257 260 262 262 262 264 266 268 269 269
119 122 124 123 120 122 119 115 121 116 101 44 356 339 326 316 309 307 306 301 304 300 298 291 286 282 279 277 275 274 270 269 266 262 254 245 242 244 249 252 253 255 257 257 257 258 259 261 263 265 266 268 269 272
97 91 94 78 66 35 15 346 327 321 316 310 304 300 300 299 297 298 295 293 290 288 287 286 285 284 284 282 281 279 275 270 266 265 263 263 262 259 257 255 256 258 260 261 262 263 264 265 266 268 270 271 273 275
351 350 339 332 328 322 318 317 314 310 306 303 298 295 294 294 293 293 291 289 288 285 281 278 277 274 274 275 275 277 277 276 275 271 267 263 261 260 259 260 261 260 260 261 262 263 264 266 267 269 271 273 275 278
314 319 321 321 322 320 319 317 313 311 307 305 302 300 298 297 295 292 290 289 287 285 282 280 278 275 274 273 272 272 270 268 266 264 262 260 259 258 257 256 256 258 259 260 262 264 266 268 270 273 275 277 280 282
300 304 305 306 306 305 303 302 301 300 299 299 299 298 297 296 294 291 288 285 283 280 277 274 272 271 270 268 267 266 264 261 260 259 258 258 259 259 260 261 262 263 264 266 268 270 271 274 276 278 280 282 284 285
295 294 292 293 293 295 298 299 300 301 303 302 300 299 298 298 298 297 295 293 290 287 284 281 278 276 273 270 268 266 265 266 266 265 265 265 266 266 267 267 268 270 271 272 274 275 276 277 278 280 281 282 283 283
276 286 292 295 299 302 307 307 307 309 310 312 311 310 308 305 301 299 295 291 288 285 281 278 273 270 268 266 265 265 265 265 266 266 267 268 269 270 271 272 273 274 275 276 277 277 278 278 279 279 279 280 281 282